Location: Newark
(42.7133°N, 87.7910°W)
Time: 19:49:16
(UTC+00:00)

Vanguard 1 Rocket - Pass Details

Date: 24 September 2019
Orbit: 650 x 4226 km, 34.3° (Epoch: 20 October)

Event Time Altitude Azimuth Distance (km) Brightness Sun altitude
Rises 01:46:06 0° 266° (W) 7,965 13.3 -22.2°
Reaches altitude 10° 01:52:17 10° 264° (W) 6,521 12.5 -23.3°
Maximum altitude 02:10:18 58° 192° (SSW) 2,452 9.3 -26.3°
Enters shadow 02:14:18 41° 139° (SE) 2,472 9.1 -26.9°
